Potter Brook, Pennsylvania
Current Conditions -  °F | °C
As of 5:15 AM on Thursday 29 Jan 2015 (Local Time) from KN38 Reporting Station
Clear Clear  
Wind Chill: -6°   Ceiling: Unl
Heat Index:   Visibility: 10mi
Dew Point:   Wind: 6mph
Humidity: 78%   Direction: 210°SSW
Pressure: 30.19"   Gusts: NA
Location:  41.9252°N, 77.5198°W
Report Text: KN38 291015Z AUTO 21005KT 10SM CLR M15/M18 A3019 RMK AO2
Loading
Personal Weather Stations






























Interactive Weather Map New forecast layout! Learn more

10-Day Weather Forecast

Advertisements
Track Severe Weather on mobile